Adrian, MI

10:54 PM EDT on September 20, 2017 (GMT -0400)
Lenawee County

Weather History for KADG - October, 2013

Change the Weather History Date:

Wednesday, October 2, 2013

  Actual Average Record
Temperature  
Mean Temperature 68 °F -  
Max Temperature 81 °F 68 °F 88 °F (1971)
Min Temperature 55 °F 43 °F 28 °F (1985)
Cooling Degree Days 2    
Growing Degree Days 18 (Base 50)    
Moisture  
Dew Point 56 °F    
Average Humidity 79    
Maximum Humidity 100    
Minimum Humidity 35    
Precipitation  
Precipitation 0.00 in - - ()
Sea Level Pressure  
Sea Level Pressure 30.06 in    
Wind  
Wind Speed 3 mph (NW)    
Max Wind Speed 7 mph    
Max Gust Speed -    
Visibility 7 miles    
Events Fog    
Averages and records for this station are not official NWS values.
T = Trace of Precipitation, MM = Missing Value Source: NWS Daily Summary

Daily Weather History Graph

Daily Weather History Graph

Search for Another Location

Airport or City:

Trip Planner

Search our weather history database for the weather conditions in past years. The results will help you decide how hot, cold, wet, or windy it might be!

Date:

Astronomy

Oct. 02, 2013 Rise Set
Actual Time 7:34 AM EDT 7:15 PM EDT
Civil Twilight 7:06 AM EDT 7:43 PM EDT
Nautical Twilight 6:34 AM EDT 8:15 PM EDT
Astronomical Twilight 6:01 AM EDT 8:48 PM EDT
Moon 5:04 AM EDT (10/2) 5:52 PM EDT (10/2)
Length of Visible Light 12h 36m
Length of Day
11h 41m
Waning Crescent, 6% of the Moon is Illuminated
Oct 2
Waning Crescent
Oct 4
New
Oct 11
First Quarter
Oct 18
Full
Oct 26
Last Quarter

Hourly Weather History & Observations

Time (EDT) Temp. Dew Point Humidity Pressure Visibility Wind Dir Wind Speed Gust Speed Precip Events Conditions
12:53 AM 60.1 °F 57.9 °F 93% 30.00 in 10.0 mi WSW 3.5 mph - N/A   Clear
1:53 AM 60.1 °F 57.9 °F 93% 30.00 in 9.0 mi West 4.6 mph - N/A   Clear
2:53 AM 59.0 °F 57.0 °F 93% 30.01 in 7.0 mi WSW 4.6 mph - N/A   Clear
3:53 AM 59.0 °F 57.9 °F 96% 30.01 in 7.0 mi West 4.6 mph - N/A   Clear
4:53 AM 59.0 °F 57.9 °F 96% 30.03 in 6.0 mi West 4.6 mph - N/A   Clear
5:53 AM 59.0 °F 57.9 °F 96% 30.04 in 5.0 mi West 4.6 mph - N/A   Clear
6:44 AM 57.2 °F 57.2 °F 100% 30.05 in 2.5 mi Calm Calm - N/A   Clear
6:48 AM 57.2 °F 57.2 °F 100% 30.05 in 1.5 mi Calm Calm - N/A   Clear
6:53 AM 57.0 °F 57.0 °F 100% 30.05 in 1.2 mi Calm Calm - N/A   Clear
6:59 AM 57.2 °F 57.2 °F 100% 30.05 in 1.0 mi Calm Calm - N/A   Mist
7:08 AM 57.2 °F 57.2 °F 100% 30.05 in 0.8 mi Calm Calm - N/A   Mist
7:53 AM 55.9 °F 55.9 °F 100% 30.07 in 0.2 mi Calm Calm - N/A Fog Fog
8:53 AM 59.0 °F 59.0 °F 100% 30.09 in 0.2 mi West 3.5 mph - N/A Fog Fog
9:17 AM 60.8 °F 60.8 °F 100% 30.09 in 1.8 mi Calm Calm - N/A   Overcast
9:25 AM 60.8 °F 60.8 °F 100% 30.09 in 3.0 mi Calm Calm - N/A   Mostly Cloudy
9:36 AM 62.6 °F 62.6 °F 100% 30.10 in 4.0 mi NW 3.5 mph - N/A   Scattered Clouds
9:53 AM 63.0 °F 62.1 °F 97% 30.10 in 7.0 mi North 4.6 mph - N/A   Clear
10:53 AM 71.1 °F 55.9 °F 59% 30.10 in 10.0 mi North 4.6 mph - N/A   Clear
11:53 AM 73.9 °F 51.1 °F 45% 30.10 in 10.0 mi NNE 3.5 mph - N/A   Clear
12:53 PM 77.0 °F 48.0 °F 36% 30.09 in 10.0 mi NE 3.5 mph - N/A   Clear
1:53 PM 78.1 °F 48.9 °F 36% 30.09 in 10.0 mi Calm Calm - N/A   Clear
2:53 PM 79.0 °F 48.9 °F 35% 30.07 in 10.0 mi Calm Calm - N/A   Clear
3:53 PM 80.1 °F 51.1 °F 36% 30.06 in 10.0 mi Variable 4.6 mph - N/A   Clear
4:53 PM 80.1 °F 51.1 °F 36% 30.05 in 10.0 mi NNW 6.9 mph - N/A   Clear
5:53 PM 78.1 °F 52.0 °F 40% 30.05 in 10.0 mi NE 5.8 mph - N/A   Clear
6:53 PM 71.1 °F 53.1 °F 53% 30.05 in 10.0 mi NNE 3.5 mph - N/A   Clear
7:53 PM 64.9 °F 53.1 °F 65% 30.07 in 10.0 mi Calm Calm - N/A   Clear
8:53 PM 63.0 °F 57.0 °F 81% 30.08 in 10.0 mi Calm Calm - N/A   Clear
9:53 PM 61.0 °F 54.0 °F 78% 30.06 in 10.0 mi Calm Calm - N/A   Clear
10:53 PM 59.0 °F 54.0 °F 83% 30.07 in 10.0 mi Calm Calm - N/A   Clear
11:53 PM 57.9 °F 54.0 °F 87% 30.07 in 10.0 mi NNE 3.5 mph - N/A   Clear